Orbital Elements at Epoch 2459200.5 (2020-Dec-17.0) TDB
Reference: JPL 19 (heliocentric ecliptic J2000)
Element | Value | Uncertainty (1-sigma) | Units |
e | .03613239239930938 | 4.2432e-08 | |
a | 2.682131443487083 | 2.0912e-08 | au |
q | 2.585219617704482 | 1.0965e-07 | au |
i | 3.034596186240431 | 4.5831e-06 | deg |
node | 98.44003251363408 | 9.6515e-05 | deg |
peri | 188.1032921771261 | 0.00012647 | deg |
M | 191.2235979610152 | 8.501e-05 | deg |
tp | 2459952.690314237585 (2023-Jan-08.19031424) | 0.00038266 | TDB |
period | 1604.421648134095 4.39 | 1.8764e-05 5.137e-08 | d yr |
n | .2243799193426937 | 2.6241e-09 | deg/d |
Q | 2.779043269269684 | 2.1667e-08 | au |
|
| | Orbit Determination Parameters
Additional Information
|